Presure
205 203 195 200 199 187 190 193 181 184 192 186 236 197 189 187 179 181 176 173 175 179 128 178 186 158 176 177 180 201 204 208 200 201 189 185 195 198 190 162 166 154 155 164 152 166 175
160 210 199 189 191 197 168 196 178 175 185 175 187 186 199 220 180 190 195 182 189 138 186 195 105 182 95 150 191 215 191 206 197 192 180 205 201 198 184 162 172 154 175 171 171 160 177
164 165 186 164 159 204 196 173 191 179 191 176 183 179 183 185 203 181 205 175 184 208 158 205 206 205 98 118 210 176 100 202 184 191 205 217 197 191 185 169 172 164 167 176 169 174 153
175 158 169 183 167 164 172 195 191 174 189 168 172 185 184 170 173 182 172 170 163 178 171 175 172 100 97 203 200 196 184 199 208 213 204 221 200 194 186 159 170 168 167 157 166 167 170
186 146 161 167 170 172 162 163 154 190 191 165 173 183 180 179 182 171 177 180 181 173 180 186 189 162 211 199 197 161 94 215 200 153 186 227 204 196 186 178 169 164 168 164 162 166 156
153 187 148 170 153 176 179 153 180 169 176 180 171 178 179 187 178 172 170 182 181 173 166 175 169 176 249 198 195 197 203 165 184 170 191 109 209 197 191 166 170 151 166 164 173 169 166
134 180 196 147 155 172 153 145 156 194 145 172 174 170 170 213 190 163 160 171 188 175 179 177 179 203 237 204 196 195 200 167 168 179 208 226 214 196 191 155 175 178 162 173 167 165 156
159 165 144 150 142 140 146 201 161 151 161 198 144 171 181 166 191 184 194 190 174 173 163 175 176 123 206 204 202 204 162 186 175 177 171 216 184 181 183 171 168 167 161 169 156 174 157
165 170 185 167 162 173 168 164 154 161 164 143 134 187 184 152 178 175 188 175 193 171 157 179 172 175 169 196 207 194 162 181 145 163 166 159 206 166 174 172 163 183 171 166 166 165 161
173 166 165 151 156 192 139 144 155 165 182 195 143 175 184 140 158 193 178 170 196 167 159 170 180 181 174 208 181 189 166 181 179 160 134 160 165 166 170 164 167 170 165 158 163 160 158
164 159 191 177 179 171 165 138 147 173 161 198 188 184 175 140 182 167 140 196 185 183 173 162 172 175 186 166 197 194 173 185 179 162 169 157 159 166 173 165 156 148 167 168 164 159 152
173 149 165 196 188 183 152 179 179 167 167 178 178 163 148 188 144 167 176 155 219 175 167 167 160 182 175 176 169 192 177 174 173 164 159 161 159 170 173 166 162 158 149 160 163 165 158
174 167 143 164 188 162 154 185 184 169 185 176 179 180 199 170 204 176 207 227 182 168 166 150 186 168 167 181 163 168 177 175 170 166 162 174 158 166 162 167 168 165 164 167 159 162 153
166 169 169 176 164 173 169 157 171 165 181 167 136 190 189 149 194 175 190 154 190 155 204 119 176 171 157 169 155 161 162 175 173 173 163 161 155 168 166 162 155 149 160 162 167 165 154
138 169 150 175 168 185 178 171 183 170 167 185 181 204 206 202 180 207 217 216 121 224 161 161 151 144 185 162 160 171 172 159 175 172 167 166 165 162 165 161 159 155 164 158 166 167 160
176 176 167 168 178 189 178 191 190 175 198 198 209 228 216 196 172 220 216 208 205 213 225 206 139 220 164 154 170 182 169 174 164 176 166 166 154 158 163 156 143 165 159 152 166 162 165
163 176 180 165 183 167 192 177 166 182 198 191 206 218 230 219 182 223 221 221 211 215 213 148 189 189 198 166 175 149 181 147 173 160 176 168 165 161 165 163 162 163 162 165 166 168 171
146 199 174 176 194 188 181 166 184 200 184 200 166 198 228 228 207 212 208 207 218 227 211 211 211 233 220 163 157 158 172 152 147 175 169 175 169 168 165 164 164 152 152 160 162 161 165
182 183 172 176 181 174 184 180 190 178 190 197 200 194 195 211 214 212 204 204 206 203 208 226 238 232 219 229 177 168 195 151 171 164 155 173 170 171 166 171 164 166 162 164 163 166 164
171 174 173 185 182 176 168 180 188 187 192 178 183 188 205 207 189 205 212 211 209 204 211 213 222 221 219 230 235 187 206 146 160 178 165 180 174 171 179 165 170 171 165 163 165 164 165
174 179 185 181 183 170 185 180 207 197 180 201 207 198 205 199 213 187 203 217 205 214 218 222 220 224 223 231 239 243 215 206 208 169 185 191 174 182 178 175 175 167 163 157 153 161 169
178 174 186 166 182 184 188 195 186 183 220 214 201 219 200 202 220 206 199 230 213 227 217 219 234 229 217 216 211 206 215 210 203 174 167 158 202 189 160 166 172 175 170 175 170 172 166
193 197 182 193 203 195 182 210 179 190 191 207 207 204 225 210 205 234 259 220 255 220 230 237 256 302 337 378 331 291 263 247 238 200 170 167 194 190 161 180 164 152 169 171 173 161 151
152 194 204 212 214 195 216 216 220 208 224 221 219 177 211 226 247 253 256 238 235 242 262 367 361 371 356 349 345 340 337 370 354 307 265 207 176 165 170 163 197 197 188 169 179 164 166
188 172 193 192 189 215 178 221 204 217 213 203 205 219 255 258 251 250 220 232 273 368 369 358 345 332 327 315 314 303 297 324 349 335 293 255 185 200 200 175 205 179 165 174 161 183 185
193 209 206 215 209 238 213 221 225 237 227 205 218 268 256 258 242 230 269 350 353 358 359 346 334 324 306 296 279 262 266 270 347 326 303 271 227 212 189 154 200 191 174 175 182 192 178
221 217 215 202 211 239 235 228 244 221 216 238 254 269 271 229 251 355 356 342 393 373 339 332 328 317 298 282 262 252 247 251 265 318 304 280 244 216 202 203 202 191 168 186 187 182 190
218 228 238 253 251 260 246 245 254 256 256 266 265 255 247 283 359 393 397 382 375 369 334 328 322 310 291 277 256 255 246 246 252 305 299 275 251 240 235 225 212 206 195 199 191 206 185
222 226 254 264 309 267 268 280 283 287 270 259 245 270 345 355 351 366 379 367 360 353 335 344 319 311 298 288 281 281 278 305 248 247 317 288 264 242 238 230 209 207 198 197 203 200 207
Wind_Speed
24 24 25 29 31 30 30 31 29 31 28 32 25 37 37 39 41 43 44 45 47 49 36 49 53 46 52 51 56 59 53 45 42 36 31 34 29 25 22 21 21 25 28 24 30 19 10
17 20 22 19 25 33 33 29 27 31 34 33 33 33 31 27 42 45 46 46 48 41 49 53 32 52 29 35 45 44 44 38 36 34 32 33 31 28 25 23 23 26 23 22 18 23 8
22 19 16 20 27 33 31 29 32 34 34 34 38 37 37 36 29 39 34 43 41 35 42 38 39 40 31 32 39 35 28 40 37 36 35 35 33 31 29 25 26 26 26 20 27 19 30
17 28 17 16 23 27 21 35 39 35 40 34 37 39 43 42 41 41 43 43 43 43 41 43 41 34 37 36 37 37 41 40 39 36 34 39 38 36 33 25 28 26 27 29 26 25 18
27 31 26 19 16 17 28 29 30 36 41 32 38 44 41 44 45 42 42 45 45 47 45 42 41 40 41 36 35 34 33 38 35 38 34 44 43 40 36 33 29 28 29 28 30 25 34
38 17 38 27 34 29 27 38 28 31 26 28 37 40 41 49 48 42 43 49 48 49 46 46 43 43 39 36 34 36 36 36 33 36 37 36 48 44 41 29 33 32 29 31 26 24 24
38 34 36 32 38 33 42 46 41 30 43 36 39 36 40 46 47 43 43 42 51 52 53 51 47 38 35 37 34 37 36 39 39 35 41 47 52 47 39 33 37 33 35 32 30 30 36
41 35 46 41 45 46 49 34 38 47 38 33 39 43 39 47 40 42 49 50 44 48 51 52 49 45 38 36 36 37 44 37 39 38 36 48 43 37 39 38 37 36 37 35 37 29 36
41 38 38 43 47 37 39 46 40 44 46 50 42 41 39 52 43 45 42 43 46 42 48 61 49 49 44 40 38 41 46 40 46 42 41 41 52 34 41 38 40 39 37 36 33 31 32
44 39 42 48 52 39 49 50 52 45 47 41 59 35 45 41 55 50 47 51 42 45 40 61 63 54 45 40 50 43 49 43 44 47 49 44 46 40 36 40 41 37 43 41 36 34 34
43 37 49 51 50 51 52 45 62 46 53 53 48 47 47 58 52 55 45 38 47 45 40 61 64 55 54 44 45 43 51 43 46 50 45 50 52 45 40 45 45 48 45 43 40 37 42
48 43 48 51 53 53 57 55 51 54 53 56 52 59 64 52 67 52 47 58 53 52 52 59 63 62 53 53 52 48 51 50 50 54 54 53 55 47 46 48 49 51 52 49 43 40 36
50 50 49 48 47 50 52 54 57 57 63 61 63 61 66 61 57 56 53 50 58 54 63 67 62 58 55 59 54 55 56 54 55 57 59 54 59 55 55 53 53 55 55 51 48 46 48
58 57 58 62 56 55 57 54 60 60 63 60 58 66 65 64 63 59 52 61 51 62 60 47 66 65 61 58 58 61 58 61 61 59 65 63 63 61 62 61 60 57 57 56 55 54 53
50 60 58 65 59 66 65 63 69 63 64 72 64 68 66 66 63 66 66 60 56 58 76 75 73 57 65 68 62 64 70 66 66 67 68 66 64 67 67 67 64 63 61 64 59 58 57
71 67 64 66 71 69 67 68 74 73 83 76 77 71 70 68 65 72 67 62 62 66 69 61 59 63 73 75 64 70 68 75 74 72 74 71 68 70 71 68 60 68 69 64 67 65 64
63 75 74 65 74 66 79 69 67 80 90 76 80 75 74 75 70 67 63 69 69 75 67 59 71 71 70 79 78 69 69 69 83 79 81 78 77 76 74 72 75 72 70 74 75 72 74
64 81 72 72 90 84 78 74 87 93 83 91 68 86 76 72 74 73 70 73 73 75 73 66 63 73 68 87 87 89 76 75 76 89 91 89 84 80 80 77 78 71 73 79 81 81 76
85 86 71 82 89 78 88 87 95 78 91 98 95 86 89 89 81 80 76 79 80 76 76 83 83 82 76 73 71 88 82 78 84 88 79 98 87 87 81 83 82 85 86 85 87 85 77
76 87 83 102 92 86 78 92 106 94 97 88 76 85 95 93 82 96 92 88 87 86 89 84 86 88 86 87 85 69 82 76 98 92 88 103 97 92 91 89 91 90 89 91 92 82 86
97 99 101 97 100 83 101 94 115 104 89 105 104 100 100 92 98 82 96 98 95 99 96 96 93 98 99 96 97 94 87 94 92 98 98 106 94 104 100 98 98 94 90 84 75 87 93
96 89 107 76 100 104 99 111 97 89 101 104 101 100 98 103 104 96 94 103 102 104 95 96 101 103 98 92 89 88 88 91 97 106 105 93 105 109 85 90 103 104 97 102 102 103 98
117 118 105 120 124 119 93 121 93 101 96 105 103 105 108 99 99 105 99 104 99 105 105 106 106 101 97 85 99 102 106 103 98 105 104 108 105 111 90 109 93 69 94 100 106 92 80
72 118 121 124 122 101 117 118 117 117 117 112 111 83 109 110 106 106 102 107 111 110 109 82 81 75 72 73 75 77 78 79 89 101 101 109 114 109 107 98 117 113 113 98 113 95 103
108 88 109 106 104 120 90 116 117 115 112 103 107 115 115 105 105 101 103 112 108 80 75 73 72 68 66 71 72 72 73 74 80 85 99 99 110 113 115 117 116 112 104 105 91 116 116
116 128 121 124 124 121 122 120 115 117 114 105 113 111 111 109 101 109 108 82 76 72 69 68 66 66 68 71 70 67 69 70 76 83 91 96 108 119 116 68 116 113 112 114 117 119 112
127 126 122 110 114 122 120 118 118 110 110 115 112 108 105 102 107 77 72 72 55 60 64 64 64 63 67 71 69 68 68 70 70 80 85 94 104 115 122 119 117 119 107 121 122 119 121
125 125 128 127 125 121 121 119 115 115 115 108 105 108 107 102 70 52 45 47 50 52 61 59 60 62 66 70 71 72 69 73 72 78 86 93 101 110 114 125 124 124 119 123 120 124 122
127 126 125 125 107 118 115 107 102 100 100 101 104 107 74 67 63 50 42 44 46 48 54 51 57 58 61 65 68 70 70 69 74 72 87 95 100 112 117 119 125 126 124 123 127 123 126
Wind_Direction
257 256 262 250 252 267 261 250 265 264 259 255 269 257 254 256 257 258 260 256 256 260 266 265 266 271 270 272 276 281 280 279 275 274 270 272 269 257 251 257 253 270 274 258 285 253 182
303 264 263 284 276 253 274 250 273 273 260 266 260 261 266 265 260 261 265 261 262 267 264 269 270 274 283 280 279 275 276 272 268 267 262 256 248 246 248 254 240 262 243 229 235 273 161
305 299 308 294 288 267 266 293 262 287 254 281 264 268 263 265 266 266 267 270 270 269 269 272 269 272 282 278 274 276 285 266 266 264 262 229 240 242 241 248 242 252 247 235 231 213 258
292 300 293 286 290 286 293 279 275 293 269 291 291 276 268 282 273 268 270 271 269 274 274 275 272 275 279 271 271 268 266 267 266 260 253 225 232 234 238 256 248 246 239 260 237 232 232
317 285 288 282 286 285 283 281 276 276 269 285 296 283 285 282 274 279 277 273 272 276 276 277 275 274 266 266 267 278 289 265 260 265 254 225 228 231 236 241 249 246 239 243 244 239 245
293 335 294 294 289 294 287 292 278 282 280 275 280 281 285 286 274 279 283 280 277 280 277 278 273 273 266 264 261 266 266 257 255 259 253 278 227 230 233 252 247 254 243 246 240 237 238
288 317 328 292 284 285 284 292 287 284 289 280 279 277 280 277 275 274 272 283 276 279 278 278 278 278 271 265 261 259 260 257 256 255 247 236 226 233 245 250 244 244 248 248 240 241 247
263 260 284 294 292 292 293 322 277 287 287 287 285 283 271 283 271 272 275 273 275 277 274 277 277 279 274 264 263 259 255 253 252 250 252 235 240 243 249 245 256 248 253 248 248 255 248
293 310 303 287 262 281 294 292 276 290 292 289 277 295 281 286 276 271 274 273 268 268 275 278 272 273 269 262 265 253 256 250 264 254 250 252 231 246 243 249 253 249 251 252 251 252 255
315 308 293 294 284 294 288 294 268 283 298 302 291 285 277 274 287 294 273 274 264 267 269 275 274 270 270 264 260 254 258 251 249 253 268 251 251 249 248 248 250 250 253 256 254 254 257
306 293 313 309 306 299 286 290 275 295 282 313 296 292 283 293 271 274 279 269 264 270 260 265 268 270 271 266 258 259 255 252 249 253 246 252 255 251 245 246 252 258 256 256 254 254 260
306 280 308 309 301 300 282 302 297 293 288 299 292 281 278 293 288 270 279 281 292 266 261 260 273 269 269 265 268 254 254 252 247 252 256 250 255 247 246 247 249 252 261 258 259 259 261
307 302 287 297 309 299 288 308 306 293 306 299 296 294 307 287 299 282 290 298 288 269 264 278 257 262 266 266 264 266 256 252 251 252 254 249 259 252 252 250 250 252 256 259 261 260 256
302 305 304 307 293 304 297 285 297 290 300 286 286 300 299 284 297 286 281 276 274 269 279 278 258 263 272 260 263 263 263 253 251 247 254 253 257 251 253 254 261 267 259 259 257 260 262
294 305 296 311 303 309 303 297 301 295 294 300 296 303 302 298 291 299 297 298 267 285 257 273 275 273 253 268 263 259 259 263 253 251 252 252 252 255 256 260 263 265 260 264 261 262 262
308 308 307 306 305 309 304 309 305 300 310 301 314 308 304 299 283 296 295 294 286 287 284 265 264 271 262 271 255 251 257 258 261 252 256 253 259 259 256 260 265 262 264 270 267 267 265
302 308 305 300 308 298 309 302 295 303 310 305 314 311 300 296 285 289 288 282 286 285 282 275 266 260 257 261 255 276 250 264 257 262 253 255 257 258 257 258 259 262 265 266 266 268 266
286 307 301 303 312 308 304 294 309 310 305 311 290 315 304 297 296 294 292 290 287 281 284 278 271 275 270 260 266 268 253 268 271 256 261 255 256 257 257 259 263 270 270 265 265 265 268
306 310 298 305 307 299 305 304 307 298 305 308 311 310 311 305 298 294 293 291 289 287 284 284 280 276 273 265 258 254 249 271 252 256 267 257 260 255 257 256 261 259 264 264 267 266 269
304 306 304 307 305 299 295 303 306 301 304 298 297 300 305 304 297 299 295 292 288 285 283 282 280 279 274 270 265 255 249 273 266 249 259 253 257 259 253 258 256 256 260 264 267 274 268
303 302 301 301 303 295 301 300 307 303 295 303 302 302 302 300 298 291 295 289 288 283 281 279 278 276 275 272 267 264 248 247 245 256 247 250 258 253 254 256 255 260 263 270 275 272 271
300 299 301 291 300 299 299 303 301 297 297 298 299 297 299 300 296 292 291 285 285 281 284 281 276 274 271 268 260 254 250 244 246 248 257 269 248 251 268 257 256 258 263 260 265 265 270
298 299 298 300 298 299 300 299 294 299 296 299 298 296 294 296 292 290 280 287 275 284 283 282 277 271 269 266 262 258 255 257 247 243 257 259 247 249 269 254 264 271 261 260 259 265 273
291 298 298 298 298 296 296 296 296 297 294 295 294 292 295 294 290 288 281 279 282 282 281 275 273 268 264 261 259 256 254 248 247 248 245 245 252 263 260 267 252 252 253 264 258 266 263
295 294 297 298 296 295 295 293 295 293 294 294 296 295 291 290 290 287 290 288 284 278 275 272 268 265 261 257 255 252 252 250 243 242 244 242 252 246 247 258 250 256 265 263 270 258 259
295 291 294 293 295 290 292 292 292 290 292 294 293 292 290 289 290 289 286 282 280 275 270 268 264 259 256 253 252 252 252 253 240 242 242 240 242 243 254 273 248 251 260 262 260 257 261
289 290 291 294 293 291 290 290 288 291 292 290 291 289 288 292 288 284 282 281 272 270 268 265 263 258 253 253 254 252 250 251 250 238 237 239 238 245 248 249 249 251 265 257 258 260 258
289 291 290 289 289 289 287 288 289 290 290 290 289 288 288 292 283 279 274 270 269 268 266 264 262 257 252 252 255 254 250 250 249 238 235 237 235 239 240 241 246 249 255 255 260 257 260
291 291 287 289 290 290 290 290 290 290 289 289 290 292 284 284 282 276 270 267 265 266 266 267 261 258 254 253 253 254 253 248 249 248 236 236 235 238 239 241 249 251 256 258 258 260 259